Weather History for Zapata, TX

Change the Weather History Date:

Monday, January 21, 2013

  Actual Average (KLRD) Record (KLRD)
Temperature  
Mean Temperature 67 °F 57 °F  
Max Temperature 77 °F 67 °F 93 °F (1911)
Min Temperature 57 °F 46 °F 20 °F (1943)
Degree Days  
Heating Degree Days 0 9  
Month to date heating degree days 205  
Since 1 July heating degree days 595  
Cooling Degree Days 2 1  
Month to date cooling degree days 21  
Year to date cooling degree days 21  
Growing Degree Days 17 (Base 50)    
Moisture  
Dew Point 51 °F    
Average Humidity 62    
Maximum Humidity 82    
Minimum Humidity 35    
Precipitation  
Precipitation 0.00 in 0.03 in 0.62 in (1966)
Month to date precipitation 0.61  
Year to date precipitation 0.61  
Sea Level Pressure  
Sea Level Pressure 30.13 in    
Wind  
Wind Speed 6 mph (ESE)    
Max Wind Speed 13 mph    
Max Gust Speed 20 mph    
Visibility 10 miles    
Events      
T = Trace of Precipitation, MM = Missing Value Source: NWS Daily Summary

Daily Weather History Graph

Daily Weather History Graph

Search for Another Location

Airport:

Trip Planner

Search our weather history database for the weather conditions in past years. The results will help you decide how hot, cold, wet, or windy it might be!

Date:

Astronomy

Jan. 21, 2013 Rise Set
Actual Time 7:26 AM CST 6:10 PM CST
Civil Twilight 7:01 AM CST 6:35 PM CST
Nautical Twilight 6:33 AM CST 7:03 PM CST
Astronomical Twilight 6:05 AM CST 7:31 PM CST
Moon 1:53 PM CST (1/21) 2:55 AM CST (1/21)
Length of Visible Light 11h 33m
Length of Day
10h 44m
Waxing Gibbous, 75% of the Moon is Illuminated
Jan 21
Waxing Gibbous
Jan 26
Full
Feb 3
Last Quarter
Feb 10
New
Feb 17
First Quarter

Hourly Weather History & Observations

Time (CST) Temp. Dew Point Humidity Pressure Visibility Wind Dir Wind Speed Gust Speed Precip Events Conditions
12:15 AM 61.3 °F 50.9 °F 69% 30.12 in 10.0 mi SE 6.9 mph - N/A   Clear
12:35 AM 60.8 °F 50.9 °F 70% 30.12 in 10.0 mi SE 4.6 mph - N/A   Clear
12:55 AM 60.3 °F 51.1 °F 72% 30.12 in 10.0 mi SE 5.8 mph - N/A   Clear
1:15 AM 59.9 °F 51.1 °F 73% 30.11 in 10.0 mi SE 4.6 mph - N/A   Clear
1:35 AM 59.0 °F 51.1 °F 75% 30.10 in 10.0 mi ESE 4.6 mph - N/A   Clear
1:55 AM 58.6 °F 51.1 °F 76% 30.10 in 10.0 mi ESE 3.5 mph - N/A   Clear
2:15 AM 57.7 °F 50.9 °F 78% 30.10 in 10.0 mi ESE 3.5 mph - N/A   Clear
2:35 AM 57.2 °F 50.9 °F 79% 30.10 in 10.0 mi Calm Calm - N/A   Scattered Clouds
2:55 AM 58.1 °F 51.6 °F 79% 30.09 in 10.0 mi ESE 4.6 mph - N/A   Overcast
3:15 AM 58.1 °F 51.1 °F 77% 30.09 in 10.0 mi Calm Calm - N/A   Overcast
3:35 AM 57.9 °F 51.3 °F 78% 30.09 in 10.0 mi East 3.5 mph - N/A   Overcast
3:55 AM 58.6 °F 51.3 °F 76% 30.09 in 10.0 mi East 4.6 mph - N/A   Overcast
4:15 AM 59.0 °F 51.1 °F 75% 30.09 in 10.0 mi ESE 4.6 mph - N/A   Overcast
4:35 AM 59.0 °F 51.1 °F 75% 30.08 in 10.0 mi ESE 4.6 mph - N/A   Overcast
4:55 AM 59.0 °F 51.1 °F 75% 30.08 in 10.0 mi East 4.6 mph - N/A   Overcast
5:15 AM 59.0 °F 51.3 °F 75% 30.08 in 10.0 mi East 5.8 mph - N/A   Overcast
5:35 AM 59.0 °F 51.3 °F 75% 30.08 in 10.0 mi East 4.6 mph - N/A   Overcast
5:55 AM 59.0 °F 51.1 °F 75% 30.09 in 10.0 mi East 5.8 mph - N/A   Overcast
6:15 AM 59.0 °F 51.3 °F 75% 30.09 in 10.0 mi East 4.6 mph - N/A   Overcast
6:35 AM 59.2 °F 51.8 °F 77% 30.10 in 10.0 mi East 4.6 mph - N/A   Overcast
6:55 AM 59.0 °F 51.8 °F 77% 30.11 in 10.0 mi Calm Calm - N/A   Overcast
7:15 AM 58.3 °F 51.8 °F 79% 30.12 in 10.0 mi Calm Calm - N/A   Overcast
7:35 AM 57.2 °F 51.4 °F 81% 30.12 in 10.0 mi Calm Calm - N/A   Scattered Clouds
7:55 AM 57.4 °F 51.8 °F 82% 30.14 in 10.0 mi Calm Calm - N/A   Mostly Cloudy
8:15 AM 58.1 °F 52.0 °F 80% 30.15 in 10.0 mi Calm Calm - N/A   Overcast
8:35 AM 58.5 °F 52.2 °F 80% 30.16 in 10.0 mi Calm Calm - N/A   Overcast
8:55 AM 59.7 °F 52.7 °F 78% 30.17 in 10.0 mi ESE 4.6 mph - N/A   Overcast
9:15 AM 60.8 °F 53.1 °F 76% 30.17 in 10.0 mi ESE 3.5 mph - N/A   Overcast
9:35 AM 61.9 °F 53.6 °F 74% 30.19 in 10.0 mi ESE 4.6 mph - N/A   Overcast
9:55 AM 62.8 °F 54.0 °F 73% 30.20 in 10.0 mi East 6.9 mph - N/A   Overcast
10:15 AM 63.7 °F 54.9 °F 73% 30.20 in 10.0 mi ESE 5.8 mph - N/A   Overcast
10:35 AM 65.1 °F 55.8 °F 72% 30.21 in 10.0 mi SE 5.8 mph - N/A   Overcast
10:55 AM 65.7 °F 56.8 °F 73% 30.21 in 10.0 mi SE 8.1 mph - N/A   Overcast
11:15 AM 66.7 °F 57.2 °F 71% 30.20 in 10.0 mi ESE 11.5 mph 16.1 mph N/A   Overcast
11:35 AM 67.3 °F 56.8 °F 69% 30.19 in 10.0 mi ESE 9.2 mph - N/A   Overcast
11:55 AM 68.2 °F 56.7 °F 67% 30.19 in 10.0 mi ESE 11.5 mph - N/A   Overcast
12:15 PM 69.4 °F 56.3 °F 63% 30.17 in 10.0 mi SE 10.4 mph 17.3 mph N/A   Overcast
12:35 PM 71.1 °F 55.8 °F 58% 30.17 in 10.0 mi ESE 12.7 mph 19.6 mph N/A   Overcast
12:55 PM 71.2 °F 55.6 °F 58% 30.15 in 10.0 mi SE 9.2 mph - N/A   Mostly Cloudy
1:15 PM 72.3 °F 55.4 °F 55% 30.15 in 10.0 mi SSE 10.4 mph - N/A   Mostly Cloudy
1:35 PM 72.7 °F 54.7 °F 53% 30.14 in 10.0 mi SE 10.4 mph 17.3 mph N/A   Mostly Cloudy
1:55 PM 74.1 °F 54.3 °F 50% 30.12 in 10.0 mi SSE 9.2 mph - N/A   Scattered Clouds
2:35 PM 75.2 °F 52.5 °F 45% 30.11 in 10.0 mi SE 9.2 mph - N/A   Mostly Cloudy
2:55 PM 75.6 °F 51.6 °F 43% 30.11 in 10.0 mi SE 8.1 mph - N/A   Mostly Cloudy
3:15 PM 77.2 °F 51.3 °F 40% 30.10 in 10.0 mi SSE 5.8 mph - N/A   Mostly Cloudy
3:35 PM 77.2 °F 50.5 °F 39% 30.09 in 10.0 mi East 10.4 mph - N/A   Mostly Cloudy
3:55 PM 77.0 °F 48.6 °F 37% 30.09 in 10.0 mi SSE 8.1 mph - N/A   Mostly Cloudy
4:15 PM 77.4 °F 48.7 °F 36% 30.09 in 10.0 mi East 11.5 mph - N/A   Mostly Cloudy
4:35 PM 77.0 °F 47.5 °F 35% 30.09 in 10.0 mi East 10.4 mph - N/A   Scattered Clouds
4:55 PM 76.6 °F 48.4 °F 37% 30.10 in 10.0 mi East 11.5 mph 17.3 mph N/A   Scattered Clouds
5:15 PM 76.1 °F 48.9 °F 38% 30.10 in 10.0 mi ESE 6.9 mph - N/A   Mostly Cloudy
5:35 PM 75.2 °F 48.4 °F 39% 30.10 in 10.0 mi East 11.5 mph - N/A   Mostly Cloudy
5:55 PM 73.9 °F 48.4 °F 40% 30.10 in 10.0 mi ESE 6.9 mph - N/A   Scattered Clouds
6:15 PM 72.7 °F 49.1 °F 43% 30.11 in 10.0 mi East 8.1 mph - N/A   Mostly Cloudy
6:55 PM 68.9 °F 50.0 °F 51% 30.12 in 10.0 mi East 4.6 mph - N/A   Clear
7:15 PM 67.5 °F 50.0 °F 53% 30.12 in 10.0 mi East 4.6 mph - N/A   Scattered Clouds
7:35 PM 67.1 °F 49.8 °F 54% 30.13 in 10.0 mi East 8.1 mph - N/A   Clear
7:55 PM 67.1 °F 49.6 °F 53% 30.14 in 10.0 mi East 8.1 mph - N/A   Clear
8:15 PM 66.6 °F 45.9 °F 47% 30.15 in 10.0 mi East 9.2 mph - N/A   Clear
8:35 PM 65.7 °F 40.5 °F 40% 30.16 in 10.0 mi East 8.1 mph - N/A   Clear
8:55 PM 64.6 °F 41.0 °F 42% 30.16 in 10.0 mi East 8.1 mph - N/A   Clear
9:15 PM 63.7 °F 41.5 °F 44% 30.17 in 10.0 mi East 8.1 mph - N/A   Clear
9:35 PM 63.1 °F 42.3 °F 46% 30.17 in 10.0 mi ESE 10.4 mph - N/A   Clear
9:55 PM 62.6 °F 43.7 °F 50% 30.17 in 10.0 mi East 9.2 mph - N/A   Clear
10:15 PM 61.7 °F 44.8 °F 54% 30.17 in 10.0 mi ESE 9.2 mph - N/A   Clear
10:35 PM 61.0 °F 45.5 °F 57% 30.18 in 10.0 mi East 8.1 mph - N/A   Scattered Clouds
10:55 PM 60.3 °F 46.8 °F 61% 30.18 in 10.0 mi ESE 5.8 mph - N/A   Scattered Clouds
11:35 PM 59.0 °F 49.1 °F 70% 30.17 in 10.0 mi ESE 6.9 mph - N/A   Mostly Cloudy
11:55 PM 59.9 °F 50.5 °F 71% 30.17 in 10.0 mi ESE 8.1 mph - N/A   Overcast